Location: ??? ???
(33.4974°N, 35.4618°E)
Time: 18:51:04
(UTC+00:00)

Cosmos 2227 Rocket - Pass Details

Date: 29 October 2020
Orbit: 839 x 845 km, 71.0° (Epoch: 01 December)

Event Time Altitude Azimuth Distance (km) Brightness Sun altitude
Rises 15:12:55 0° 351° (N) 3,402 5.3 -5.7°
Reaches altitude 10° 15:15:42 10° 2° (N) 2,465 4.5 -6.3°
Maximum altitude 15:20:35 29° 62° (ENE) 1,487 3.0 -7.3°
Drops below altitude 10° 15:25:28 10° 122° (ESE) 2,458 4.2 -8.3°
Sets 15:28:12 0° 133° (SE) 3,390 5.0 -8.8°
